CW0736 Weather Reports


Display with metric or nautical units.
time (UTC)temp
F
wind
direction
speed
MPH
gust
MPH
rain 1hr
in
rain 24hr
in
rain mn
in
humidity
%
barometer
mb
20240721095511 64 360 0.0 1.0 0.00 0.00 0.00 90 1017.8
20240721095042 64 360 0.0 1.0 0.00 0.00 0.00 90 1017.8
20240721094551 64 360 0.0 1.0 0.00 0.00 0.00 90 1017.8
20240721094005 63 360 0.0 1.0 0.00 0.00 0.00 90 1017.7
20240721093523 63 360 0.0 2.0 0.00 0.00 0.00 90 1017.8
20240721093104 63 360 0.0 1.0 0.00 0.00 0.00 90 1017.8
20240721092557 63 360 0.0 0.0 0.00 0.00 0.00 90 1017.7
20240721092039 64 360 0.0 0.0 0.00 0.00 0.00 90 1017.7
20240721091617 64 360 0.0 0.0 0.00 0.00 0.00 89 1017.7
20240721091025 64 360 0.0 0.0 0.00 0.00 0.00 89 1017.7
20240721090539 64 360 0.0 0.0 0.00 0.00 0.00 89 1017.7
20240721090054 64 360 0.0 0.0 0.00 0.00 0.00 89 1017.6
20240721085515 64 360 0.0 0.0 0.00 0.00 0.00 89 1017.8
20240721085028 64 360 0.0 0.0 0.00 0.00 0.00 89 1017.7
20240721084601 64 360 0.0 0.0 0.00 0.00 0.00 88 1017.7
20240721084009 64 360 0.0 0.0 0.00 0.00 0.00 88 1017.7
20240721083523 64 360 0.0 0.0 0.00 0.00 0.00 88 1017.7
20240721083016 65 360 0.0 0.0 0.00 0.00 0.00 88 1017.8
20240721082526 65 360 0.0 0.0 0.00 0.00 0.00 88 1017.6
20240721082042 65 360 0.0 0.0 0.00 0.00 0.00 87 1017.6
20240721081502 65 360 0.0 2.0 0.00 0.00 0.00 87 1017.5
20240721081019 65 360 0.0 2.0 0.00 0.00 0.00 87 1017.6
20240721080541 65 360 0.0 2.0 0.00 0.00 0.00 87 1017.5
20240721080218 65 360 0.0 2.0 0.00 0.00 0.00 87 1017.5
20240721075515 65 360 0.0 1.0 0.00 0.00 0.00 87 1017.5
20240721075042 65 360 0.0 2.0 0.00 0.00 0.00 87 1018.2
20240721074549 66 360 0.0 5.0 0.00 0.00 0.00 87 1017.4
20240721074033 65 360 1.0 5.0 0.00 0.00 0.00 87 1017.4
20240721073552 66 360 0.0 2.0 0.00 0.00 0.00 87 1017.5
20240721073006 66 360 0.0 2.0 0.00 0.00 0.00 87 1017.5
20240721072529 66 360 0.0 2.0 0.00 0.00 0.00 87 1017.6
20240721072048 66 360 0.0 1.0 0.00 0.00 0.00 86 1017.5
20240721071504 66 360 0.0 2.0 0.00 0.00 0.00 87 1017.6
20240721071046 66 360 1.0 3.0 0.00 0.00 0.00 86 1017.6
20240721070513 66 360 0.0 4.0 0.00 0.00 0.00 86 1017.6
20240721070039 66 360 0.0 3.0 0.00 0.00 0.00 86 1017.7
20240721065552 66 360 1.0 5.0 0.00 0.00 0.00 86 1017.7
20240721065011 67 360 1.0 4.0 0.00 0.00 0.00 85 1017.6
20240721064547 67 360 1.0 3.0 0.00 0.00 0.00 85 1017.6
20240721064050 67 360 0.0 2.0 0.00 0.00 0.00 85 1017.6
20240721063511 67 360 0.0 3.0 0.00 0.00 0.00 85 1017.7
20240721063050 67 360 0.0 3.0 0.00 0.00 0.00 85 1017.6
20240721062550 67 360 0.0 2.0 0.00 0.00 0.00 84 1017.7
20240721062005 67 360 0.0 2.0 0.00 0.00 0.00 85 1017.6
20240721061527 67 360 0.0 2.0 0.00 0.00 0.00 84 1017.5
20240721061045 67 360 1.0 3.0 0.00 0.00 0.00 84 1017.6
20240721060504 67 360 0.0 3.0 0.00 0.00 0.00 84 1017.7
20240721060031 67 360 1.0 3.0 0.00 0.00 0.00 83 1017.6
20240721055548 67 360 0.0 3.0 0.00 0.00 0.00 83 1017.7
20240721055007 68 360 0.0 4.0 0.00 0.00 0.00 83 1017.6
20240721054523 68 360 1.0 3.0 0.00 0.00 0.00 83 1017.6
20240721054044 68 360 0.0 2.0 0.00 0.00 0.00 83 1017.6
20240721053504 68 360 1.0 3.0 0.00 0.00 0.00 83 1017.6
20240721053036 68 360 1.0 3.0 0.00 0.00 0.00 83 1017.6
20240721052538 68 360 0.0 3.0 0.00 0.00 0.00 82 1017.7
20240721052055 68 360 0.0 5.0 0.00 0.00 0.00 82 1017.6
20240721051512 68 360 1.0 5.0 0.00 0.00 0.00 82 1017.7
20240721051031 68 360 1.0 5.0 0.00 0.00 0.00 82 1017.7
20240721050546 68 360 1.0 4.0 0.00 0.00 0.00 81 1017.7
20240721050004 68 360 1.0 4.0 0.00 0.00 0.00 81 1017.8
20240721045526 68 360 1.0 4.0 0.00 0.00 0.00 81 1017.8
20240721045004 68 360 1.0 4.0 0.00 0.00 0.00 81 1017.6
20240721044527 68 360 2.0 4.0 0.00 0.00 0.00 80 1017.7
20240721044048 68 360 0.0 5.0 0.00 0.00 0.00 80 1017.6
20240721043502 68 360 1.0 5.0 0.00 0.00 0.00 80 1017.8
20240721043043 68 360 1.0 3.0 0.00 0.00 0.00 80 1017.8
20240721042542 68 360 1.0 3.0 0.00 0.00 0.00 80 1017.8
20240721042059 68 360 1.0 4.0 0.00 0.00 0.00 80 1017.8
20240721041514 68 360 2.0 5.0 0.00 0.00 0.00 80 1017.9
20240721041026 68 360 1.0 3.0 0.00 0.00 0.00 79 1017.9
20240721040508 68 360 1.0 3.0 0.00 0.00 0.00 79 1017.9
20240721040034 68 360 1.0 4.0 0.00 0.00 0.00 79 1017.8
20240721035544 68 360 1.0 5.0 0.00 0.00 0.00 79 1017.9
20240721035007 68 360 1.0 8.0 0.00 0.00 0.00 79 1017.9
20240721034531 68 360 2.0 8.0 0.00 0.00 0.00 78 1017.9
20240721034049 69 360 2.0 6.0 0.00 0.00 0.00 78 1017.9
20240721033504 69 360 1.0 4.0 0.00 0.00 0.00 78 1017.9
20240721033024 69 360 1.0 5.0 0.00 0.00 0.00 78 1018.0
20240721032545 69 360 2.0 6.0 0.00 0.00 0.00 77 1018.1
20240721032100 69 360 2.0 6.0 0.00 0.00 0.00 77 1018.1
20240721032002 69 360 2.0 6.0 0.00 0.00 0.00 77 1018.1
20240721031548 69 360 1.0 6.0 0.00 0.00 0.00 77 1018.1
20240721031059 69 360 2.0 6.0 0.00 0.00 0.00 76 1018.0
20240721030517 70 360 1.0 5.0 0.00 0.00 0.00 76 1018.1
20240721030039 70 360 1.0 5.0 0.00 0.00 0.00 76 1018.0
20240721025557 70 360 1.0 4.0 0.00 0.00 0.00 76 1018.1
20240721025019 70 360 2.0 5.0 0.00 0.00 0.00 75 1018.0
20240721024551 70 360 2.0 5.0 0.00 0.00 0.00 75 1018.0
20240721024059 70 360 2.0 5.0 0.00 0.00 0.00 75 1018.0
20240721024002 70 360 2.0 4.0 0.00 0.00 0.00 75 1018.0
20240721023519 70 360 1.0 4.0 0.00 0.00 0.00 75 1018.0
20240721023042 70 360 0.0 4.0 0.00 0.00 0.00 74 1018.0
20240721022557 71 360 0.0 4.0 0.00 0.00 0.00 74 1018.0
20240721022023 71 360 1.0 4.0 0.00 0.00 0.00 73 1018.0
20240721021546 71 360 1.0 3.0 0.00 0.00 0.00 73 1018.1
20240721021057 71 360 0.0 3.0 0.00 0.00 0.00 73 1018.1
20240721020513 71 360 0.0 3.0 0.00 0.00 0.00 73 1018.0
20240721020033 71 360 1.0 3.0 0.00 0.00 0.00 72 1018.0
20240721015511 71 360 0.0 3.0 0.00 0.00 0.00 72 1018.0
20240721015031 71 360 0.0 3.0 0.00 0.00 0.00 72 1017.9
20240721014600 71 360 0.0 3.0 0.00 0.00 0.00 72 1017.9
20240721014007 71 360 0.0 0.0 0.00 0.00 0.00 72 1017.9
20240721013531 71 360 0.0 1.0 0.00 0.00 0.00 72 1017.9
20240721013045 71 360 0.0 4.0 0.00 0.00 0.00 73 1017.8
20240721012505 71 360 0.0 2.0 0.00 0.00 0.00 73 1017.8
20240721012025 71 360 0.0 1.0 0.00 0.00 0.00 73 1017.7
20240721011542 71 360 0.0 2.0 0.00 0.00 0.00 73 1017.8
20240721011025 71 360 0.0 2.0 0.00 0.00 0.00 73 1017.7
20240721010544 71 360 0.0 1.0 0.00 0.00 0.00 73 1017.6
20240721010102 71 360 0.0 0.0 0.00 0.00 0.00 72 1017.6
20240721005525 72 360 0.0 0.0 0.00 0.00 0.00 71 1017.6
20240721005040 72 360 0.0 0.0 0.00 0.00 0.00 71 1017.6
20240721004615 72 360 0.0 0.0 0.00 0.00 0.00 70 1017.6
20240721004013 73 360 0.0 0.0 0.00 0.00 0.00 69 1017.6
20240721003536 73 237 0.0 0.0 0.00 0.00 0.00 69 1017.7
20240721003053 73 238 0.0 0.0 0.00 0.00 0.00 69 1017.6
20240721002511 73 239 0.0 0.0 0.00 0.00 0.00 69 1017.5
20240721002035 74 239 0.0 0.0 0.00 0.00 0.00 69 1017.6
20240721001551 74 239 0.0 0.0 0.00 0.00 0.00 68 1017.6
20240721001011 74 239 0.0 0.0 0.00 0.00 0.00 67 1017.6
20240721000532 74 239 0.0 0.0 0.00 0.00 0.00 67 1017.6
20240721000051 75 239 0.0 0.0 0.00 0.00 0.00 66 1017.5
20240720235511 75 239 0.0 0.0 0.00 0.00 0.00 66 1017.5
20240720235034 75 239 0.0 0.0 0.00 0.00 0.00 66 1017.6
20240720234551 75 239 0.0 0.0 0.00 0.00 0.00 64 1017.5
20240720234009 76 240 0.0 0.0 0.00 0.00 0.00 65 1017.5
20240720233527 76 240 0.0 0.0 0.00 0.00 0.00 64 1017.4
20240720233046 76 240 0.0 0.0 0.00 0.00 0.00 64 1017.4
20240720232531 76 240 0.0 1.0 0.00 0.00 0.00 63 1017.3
20240720232049 76 240 0.0 1.0 0.00 0.00 0.00 62 1017.4
20240720231511 77 240 0.0 0.0 0.00 0.00 0.00 61 1017.5
20240720231033 77 240 0.0 0.0 0.00 0.00 0.00 60 1017.4
20240720230551 77 240 0.0 0.0 0.00 0.00 0.00 59 1017.4
20240720230011 77 240 0.0 2.0 0.00 0.00 0.00 59 1017.5
20240720225534 77 46 0.0 2.0 0.00 0.00 0.00 58 1017.4
20240720225055 78 44 0.0 2.0 0.00 0.00 0.00 58 1017.4
20240720224535 78 35 0.0 0.0 0.00 0.00 0.00 59 1017.3
20240720224036 78 229 0.0 2.0 0.00 0.00 0.00 60 1017.3
20240720223553 78 234 0.0 2.0 0.00 0.00 0.00 60 1017.3
20240720223013 78 272 0.0 1.0 0.00 0.00 0.00 58 1017.2
20240720222551 78 272 0.0 2.0 0.00 0.00 0.00 58 1017.3
20240720222011 78 272 0.0 3.0 0.00 0.00 0.00 56 1017.3
20240720221536 78 271 1.0 3.0 0.00 0.00 0.00 55 1017.3
20240720221048 78 255 1.0 3.0 0.00 0.00 0.00 57 1017.1
20240720220508 79 271 0.0 3.0 0.00 0.00 0.00 58 1017.2
20240720220033 79 271 0.0 3.0 0.00 0.00 0.00 57 1017.3
20240720215549 79 43 1.0 3.0 0.00 0.00 0.00 57 1017.2
20240720215009 79 263 0.0 3.0 0.00 0.00 0.00 58 1017.4
20240720214537 79 263 0.0 4.0 0.00 0.00 0.00 57 1017.5
20240720214051 79 281 1.0 4.0 0.00 0.00 0.00 57 1017.5
20240720213511 79 257 2.0 4.0 0.00 0.00 0.00 56 1017.6
20240720213034 79 273 0.0 1.0 0.00 0.00 0.00 58 1017.6
20240720212551 79 263 0.0 3.0 0.00 0.00 0.00 59 1017.6
20240720212010 79 264 0.0 4.0 0.00 0.00 0.00 57 1017.8
20240720211529 79 272 0.0 4.0 0.00 0.00 0.00 56 1017.8
20240720211044 79 30 0.0 4.0 0.00 0.00 0.00 58 1017.7
20240720210503 79 30 1.0 4.0 0.00 0.00 0.00 56 1017.7
20240720210059 79 17 0.0 3.0 0.00 0.00 0.00 58 1017.9
20240720205506 79 265 0.0 4.0 0.00 0.00 0.00 57 1017.8
20240720205028 79 254 0.0 3.0 0.00 0.00 0.00 57 1017.9
20240720204604 79 29 0.0 3.0 0.00 0.00 0.00 59 1017.9
20240720204003 79 29 0.0 2.0 0.00 0.00 0.00 58 1017.8
20240720203520 79 29 0.0 2.0 0.00 0.00 0.00 58 1017.9
20240720203049 79 29 0.0 4.0 0.00 0.00 0.00 56 1018.0
20240720202558 79 29 1.0 4.0 0.00 0.00 0.00 59 1018.0
20240720202018 79 18 0.0 3.0 0.00 0.00 0.00 56 1017.9
20240720201544 79 21 0.0 3.0 0.00 0.00 0.00 56 1018.0
20240720201057 79 21 0.0 4.0 0.00 0.00 0.00 56 1018.0
20240720200518 79 248 0.0 3.0 0.00 0.00 0.00 57 1018.0
20240720200040 79 155 0.0 3.0 0.00 0.00 0.00 55 1018.1
20240720195510 79 140 0.0 3.0 0.00 0.00 0.00 54 1018.1
20240720195032 79 265 0.0 3.0 0.00 0.00 0.00 57 1018.1
20240720194551 79 265 0.0 2.0 0.00 0.00 0.00 57 1018.2
20240720194014 80 267 1.0 6.0 0.00 0.00 0.00 54 1018.2
20240720193554 80 267 0.0 6.0 0.00 0.00 0.00 54 1018.2
20240720193015 80 274 2.0 4.0 0.00 0.00 0.00 53 1018.2
20240720192536 80 253 1.0 7.0 0.00 0.00 0.00 53 1018.2
20240720192055 80 273 2.0 7.0 0.00 0.00 0.00 57 1018.2
20240720191511 80 244 0.0 3.0 0.00 0.00 0.00 56 1018.3
20240720191031 79 236 0.0 3.0 0.00 0.00 0.00 57 1018.4
20240720190548 79 201 0.0 2.0 0.00 0.00 0.00 57 1018.4
20240720190007 79 33 0.0 6.0 0.00 0.00 0.00 56 1018.5
20240720185524 79 157 2.0 6.0 0.00 0.00 0.00 55 1018.5
20240720185042 79 192 0.0 4.0 0.00 0.00 0.00 54 1018.5
20240720184540 79 264 2.0 6.0 0.00 0.00 0.00 53 1018.5
20240720184043 80 259 2.0 6.0 0.00 0.00 0.00 54 1018.5
20240720183601 79 36 0.0 4.0 0.00 0.00 0.00 56 1018.7
20240720183020 79 225 0.0 2.0 0.00 0.00 0.00 60 1018.6
20240720182538 79 282 0.0 2.0 0.00 0.00 0.00 56 1018.7
20240720182022 79 285 0.0 3.0 0.00 0.00 0.00 56 1018.7
20240720181540 79 285 1.0 3.0 0.00 0.00 0.00 59 1018.7
20240720181051 79 26 0.0 4.0 0.00 0.00 0.00 61 1018.7
20240720180512 79 30 0.0 4.0 0.00 0.00 0.00 55 1018.8
20240720180033 79 170 0.0 2.0 0.00 0.00 0.00 58 1018.7
20240720175550 79 170 0.0 3.0 0.00 0.00 0.00 57 1018.7
20240720175010 79 258 0.0 6.0 0.00 0.00 0.00 55 1018.8
20240720174533 79 248 1.0 6.0 0.00 0.00 0.00 55 1018.8
20240720174048 79 273 0.0 4.0 0.00 0.00 0.00 57 1018.8
20240720173506 79 80 0.0 3.0 0.00 0.00 0.00 57 1018.8
20240720173030 79 41 1.0 3.0 0.00 0.00 0.00 58 1018.8
20240720172544 78 31 1.0 4.0 0.00 0.00 0.00 57 1018.8
20240720172100 78 347 0.0 4.0 0.00 0.00 0.00 58 1018.9
20240720172002 78 266 1.0 4.0 0.00 0.00 0.00 57 1018.9
20240720171521 78 269 1.0 4.0 0.00 0.00 0.00 56 1019.0
20240720171046 79 61 0.0 4.0 0.00 0.00 0.00 55 1018.9
20240720170600 79 61 2.0 6.0 0.00 0.00 0.00 55 1019.0
20240720170501 78 61 1.0 6.0 0.00 0.00 0.00 54 1019.0
20240720170021 78 62 2.0 6.0 0.00 0.00 0.00 56 1018.9
20240720165540 78 24 1.0 6.0 0.00 0.00 0.00 56 1018.9
20240720165101 78 263 0.0 6.0 0.00 0.00 0.00 57 1019.0
20240720165002 78 263 0.0 6.0 0.00 0.00 0.00 56 1019.0
20240720164516 79 244 1.0 3.0 0.00 0.00 0.00 55 1019.0
20240720164032 79 128 0.0 4.0 0.00 0.00 0.00 55 1019.2
20240720163521 79 248 0.0 2.0 0.00 0.00 0.00 56 1019.1
20240720163046 78 248 0.0 4.0 0.00 0.00 0.00 63 1019.2
20240720162554 78 247 0.0 4.0 0.00 0.00 0.00 59 1019.2
20240720162020 78 360 1.0 4.0 0.00 0.00 0.00 56 1019.3
20240720161608 78 269 1.0 4.0 0.00 0.00 0.00 60 1019.3
20240720161024 78 144 1.0 3.0 0.00 0.00 0.00 57 1019.1
20240720160538 78 264 2.0 4.0 0.00 0.00 0.00 56 1019.3
20240720160056 78 181 1.0 6.0 0.00 0.00 0.00 60 1019.2
20240720155516 78 276 0.0 4.0 0.00 0.00 0.00 56 1019.3
20240720155042 78 236 1.0 4.0 0.00 0.00 0.00 59 1019.2
20240720154525 78 344 1.0 4.0 0.00 0.00 0.00 56 1019.2
20240720154040 78 271 1.0 3.0 0.00 0.00 0.00 56 1019.3
20240720153555 78 334 0.0 4.0 0.00 0.00 0.00 59 1019.4
20240720153019 78 203 1.0 3.0 0.00 0.00 0.00 58 1019.4
20240720152536 78 271 0.0 3.0 0.00 0.00 0.00 62 1019.4
20240720152049 78 271 1.0 6.0 0.00 0.00 0.00 55 1019.4
20240720151506 79 269 0.0 2.0 0.00 0.00 0.00 58 1019.5
20240720151031 79 264 0.0 2.0 0.00 0.00 0.00 60 1019.5
20240720150544 78 264 0.0 2.0 0.00 0.00 0.00 58 1019.6
20240720150104 78 264 0.0 3.0 0.00 0.00 0.00 63 1019.6
20240720150003 78 264 0.0 3.0 0.00 0.00 0.00 61 1019.6
20240720145518 78 264 1.0 3.0 0.00 0.00 0.00 57 1019.5
20240720145038 78 269 1.0 3.0 0.00 0.00 0.00 60 1019.6
20240720144546 78 269 0.0 2.0 0.00 0.00 0.00 60 1019.6
20240720144027 78 269 0.0 2.0 0.00 0.00 0.00 59 1019.5
20240720143546 78 269 0.0 4.0 0.00 0.00 0.00 61 1019.5
20240720143004 78 268 0.0 3.0 0.00 0.00 0.00 58 1019.6
20240720142525 77 268 0.0 3.0 0.00 0.00 0.00 66 1019.6
20240720142041 77 267 0.0 3.0 0.00 0.00 0.00 64 1019.6
20240720141601 77 278 0.0 2.0 0.00 0.00 0.00 61 1019.6
20240720141014 76 278 0.0 2.0 0.00 0.00 0.00 63 1019.7
20240720140534 76 263 0.0 3.0 0.00 0.00 0.00 66 1019.8
20240720140051 76 296 0.0 3.0 0.00 0.00 0.00 67 1019.7
20240720135509 75 327 0.0 1.0 0.00 0.00 0.00 70 1019.7
20240720135024 74 321 0.0 2.0 0.00 0.00 0.00 70 1019.8
20240720134539 74 321 0.0 2.0 0.00 0.00 0.00 69 1019.8
20240720134027 73 20 0.0 3.0 0.00 0.00 0.00 70 1019.9
20240720133538 73 5 0.0 4.0 0.00 0.00 0.00 71 1020.0
20240720133104 73 250 1.0 6.0 0.00 0.00 0.00 70 1020.0
20240720132517 72 261 1.0 6.0 0.00 0.00 0.00 73 1020.1
20240720132022 72 265 0.0 6.0 0.00 0.00 0.00 72 1020.2
20240720131606 71 266 0.0 6.0 0.00 0.00 0.00 73 1020.3
20240720131052 71 257 1.0 5.0 0.00 0.00 0.00 73 1020.3
20240720130511 70 261 1.0 5.0 0.00 0.00 0.00 73 1020.4
20240720130035 70 201 1.0 3.0 0.00 0.00 0.00 75 1020.4
20240720125546 69 275 0.0 4.0 0.00 0.00 0.00 76 1020.4
20240720125100 69 275 0.0 4.0 0.00 0.00 0.00 77 1020.4
20240720124516 68 360 0.0 4.0 0.00 0.00 0.00 77 1020.4
20240720124031 67 360 1.0 4.0 0.00 0.00 0.00 77 1020.4
20240720123554 67 360 0.0 4.0 0.00 0.00 0.00 78 1020.4
20240720123012 67 360 1.0 4.0 0.00 0.00 0.00 78 1020.3
20240720122531 66 360 0.0 3.0 0.00 0.00 0.00 78 1020.3
20240720122049 66 281 0.0 5.0 0.00 0.00 0.00 79 1020.4
20240720121502 65 360 1.0 5.0 0.00 0.00 0.00 79 1020.3
20240720121017 65 360 0.0 5.0 0.00 0.00 0.00 80 1020.3
20240720120540 65 360 0.0 5.0 0.00 0.00 0.00 80 1020.1
20240720120053 64 360 1.0 4.0 0.00 0.00 0.00 81 1020.3
20240720115511 64 360 0.0 3.0 0.00 0.00 0.00 81 1020.3
20240720115042 64 360 1.0 3.0 0.00 0.00 0.00 82 1020.3
20240720114602 63 360 1.0 2.0 0.00 0.00 0.00 82 1020.3
20240720114011 63 360 0.0 2.0 0.00 0.00 0.00 81 1020.3
20240720113528 62 360 0.0 3.0 0.00 0.00 0.00 81 1020.2
20240720113048 62 360 0.0 6.0 0.00 0.00 0.00 81 1020.2
20240720112503 61 360 1.0 6.0 0.00 0.00 0.00 82 1020.2
20240720112029 61 360 1.0 5.0 0.00 0.00 0.00 82 1020.2
20240720111542 60 360 1.0 5.0 0.00 0.00 0.00 83 1020.3
20240720111059 60 360 2.0 5.0 0.00 0.00 0.00 83 1020.3
20240720110517 59 360 0.0 2.0 0.00 0.00 0.00 85 1020.1
20240720110041 59 360 0.0 1.0 0.00 0.00 0.00 85 1020.1
20240720105558 58 360 0.0 1.0 0.00 0.00 0.00 84 1020.0
20240720105023 58 360 0.0 1.0 0.00 0.00 0.00 85 1020.0
20240720104535 58 360 0.0 3.0 0.00 0.00 0.00 85 1020.0
20240720104053 58 360 0.0 3.0 0.00 0.00 0.00 85 1020.0
20240720103511 57 360 0.0 2.0 0.00 0.00 0.00 85 1019.9
20240720103033 57 360 0.0 1.0 0.00 0.00 0.00 85 1020.0
20240720102545 57 360 0.0 2.0 0.00 0.00 0.00 86 1019.9
20240720102003 57 360 0.0 1.0 0.00 0.00 0.00 86 1019.9
20240720101519 57 360 0.0 1.0 0.00 0.00 0.00 85 1019.8
20240720101041 57 360 0.0 0.0 0.00 0.00 0.00 85 1019.9
20240720100559 57 360 0.0 0.0 0.00 0.00 0.00 85 1020.0
20240720100501 57 360 0.0 0.0 0.00 0.00 0.00 85 1019.9
20240720100031 56 360 0.0 0.0 0.00 0.00 0.00 85 1019.9